Flag for Honduras Weather past 2 weeks in La Ceiba, Honduras

Now
81 °F

Passing clouds.


Feels Like: 86 °F
Forecast: 74 / 89 °F
Wind: 5 mph from East

Location: La Ceiba Airport

Current Time: May 25, 2015 at 8:16:16 PM

Latest Report: May 25, 2015 at 8:00 PM


Visibility: N/A

Pressure: 29.89 "Hg

Humidity: 84%

Dew point: 75 °F

Location of La CeibaLocation

Historic Weather in La Ceiba — Graph

°F

La Ceiba temperature yesterday

Maximum temperature yesterday: 90 °F (at 10:00 AM)
Minimum temperature yesterday: 75 °F (at 4:00 AM)
Average temperature yesterday: 82 °F

Past Weeks' High & Low Weather Summary

 TemperatureHumidityPressure
High90 °F (May 11, 11:00 AM)100% (May 15, 11:00 PM)30.04 "Hg (May 15, 11:00 PM)
Low70 °F (May 16, 5:00 AM)42% (May 23, 3:00 PM)29.80 "Hg (May 11, 3:00 PM)
Average81 °F80%29.92 "Hg
* Reported May 10 7:00 PM — May 25 7:00 PM, La Ceiba, Weather by CustomWeather, © 2015

Note: Actual official high and low records may vary slightly from our data, if they occured in-between our weather recording intervals... More about our weather records

Advertising

La Ceiba weather history for previous 24 hours

 ConditionsComfort  
Time TempWeatherWind HumidityBarometerVisibility
7:00 PM
Mon, May 25
82 °FPassing clouds.9 mph79%29.86 "HgN/A
6:00 PM82 °FScattered clouds.15 mph84%29.86 "Hg4 mi
5:00 PM84 °FPassing clouds.17 mph79%29.83 "Hg5 mi
4:00 PM86 °FScattered clouds.17 mph75%29.83 "Hg5 mi
3:00 PM88 °FScattered clouds.18 mph70%29.86 "Hg5 mi
2:00 PM88 °FScattered clouds.18 mph70%29.89 "Hg5 mi
1:00 PM88 °FPassing clouds.14 mph70%29.89 "HgN/A
12:20 PM90 °FScattered clouds.14 mph67%29.92 "HgN/A
11:00 AM90 °FScattered clouds.9 mph67%29.92 "HgN/A
10:00 AM86 °FPassing clouds.6 mph70%29.95 "HgN/A
9:00 AM86 °FPassing clouds.3 mph70%29.95 "HgN/A
8:00 AM84 °FPassing clouds.No wind70%29.95 "HgN/A
7:00 AM81 °FPassing clouds.No wind79%29.95 "HgN/A
5:00 AM73 °FPassing clouds.No wind94%29.92 "HgN/A
3:00 AM73 °FPassing clouds.No wind94%29.89 "HgN/A
2:00 AM75 °FPassing clouds.No wind94%29.89 "HgN/A
1:00 AM75 °FPassing clouds.No wind94%29.92 "HgN/A
12:00 AM77 °FPassing clouds.No wind89%29.92 "HgN/A
10:00 PM
Sun, May 24
79 °FPassing clouds.2 mph89%29.95 "Hg5 mi
9:00 PM81 °FPassing clouds.No wind84%29.92 "Hg5 mi
8:00 PM81 °FPassing clouds.5 mph84%29.92 "Hg4 mi
Weather by CustomWeather, © 2015

See weather overviewHow to use our weather pages